sat.trackr.live / text

‹ back to catalog

STARLINK-31581

NORAD 59474 · 2024-068V

PAYLOAD ACTIVE UNKNOWN

§ Identity

Operator
Country
US
Launch date
2024-04-10
Launch site
AFETR
Launch vehicle
Mass (kg)
RCS (m²)

Purposes: comms

External: N2YO · Heavens-Above · Gunter

§ Orbital elements

Epoch: 2026-05-25T04:25:02.008128Z

Period
94.27 min
Inclination
43.0026°
Eccentricity
0.0001017
Mean motion
15.27576181 rev/d
Perigee alt
482.4 km
Apogee alt
483.8 km
Semi-major
6,861.2 km
B*
2.0637e-5
RAAN
315.4040°
Arg perigee
281.1155°
Mean anomaly
78.9582°
Rev number
12,030

§ Raw data

STARLINK-315811 59474U 24068V   26145.18405102  .00000306  00000+0  20637-4 0  99982 59474  43.0026 315.4040 0001017 281.1155  78.9582 15.27576181120303

JSON: /api/v1/satellites/59474 · /tle

For live sub-satellite position, see the globe view (requires WebGL).

§ Visibility from observer

Set your observer location to see the next 7 days of passes ≥ 10°. The values pass through the URL so the page stays shareable.

No JS? Fill the form by hand. The geolocation button needs JavaScript.